Time,TemperatureF,DewpointF,PressureIn,WindDirection,WindDirectionDegrees,WindSpeedMPH,WindSpeedGustMPH,Humidity,HourlyPrecipIn,Conditions,Clouds,dailyrainin,SoftwareType,DateUTC
2013-07-05 00:01:00,70.2,64.8,30.09,SSW,208,2.0,0.0,83,0.00,RA,,0.00,WeatherDisplay:10.37,2013-07-05 04:01:00,
2013-07-05 00:02:00,70.1,65.0,30.09,SSW,207,2.3,2.3,84,0.00,RA,,0.00,WeatherDisplay:10.37,2013-07-05 04:02:00,
2013-07-05 00:03:00,70.1,65.0,30.09,SSW,207,2.3,2.3,84,0.00,RA,,0.00,WeatherDisplay:10.37,2013-07-05 04:03:00,
2013-07-05 00:04:00,70.0,64.9,30.09,SSW,209,1.2,0.0,84,0.00,RA,,0.00,WeatherDisplay:10.37,2013-07-05 04:04:00,
2013-07-05 00:09:00,69.8,64.7,30.10,SSW,209,1.2,0.0,84,0.00,RA,,0.00,WeatherDisplay:10.37,2013-07-05 04:09:00,
2013-07-05 00:14:00,69.6,64.9,30.10,SSW,209,3.0,3.0,85,0.00,CLR,,0.00,WeatherDisplay:10.37,2013-07-05 04:14:00,
2013-07-05 00:19:00,69.5,64.8,30.10,SW,216,2.3,2.3,85,0.00,CLR,,0.00,WeatherDisplay:10.37,2013-07-05 04:19:00,
2013-07-05 00:24:00,69.3,64.6,30.10,SSW,194,3.5,3.5,85,0.00,CLR,,0.00,WeatherDisplay:10.37,2013-07-05 04:24:00,
2013-07-05 00:29:00,69.3,64.6,30.10,SSW,207,5.0,5.0,85,0.00,CLR,,0.00,WeatherDisplay:10.37,2013-07-05 04:29:00,
2013-07-05 00:34:00,69.3,64.6,30.10,SW,219,3.0,3.0,85,0.00,CLR,,0.00,WeatherDisplay:10.37,2013-07-05 04:34:00,
2013-07-05 00:39:00,69.2,64.8,30.10,SW,215,4.0,4.0,86,0.00,CLR,,0.00,WeatherDisplay:10.37,2013-07-05 04:39:00,
2013-07-05 00:44:00,69.2,64.8,30.10,SW,233,4.0,4.0,86,0.00,CLR,,0.00,WeatherDisplay:10.37,2013-07-05 04:44:00,
2013-07-05 00:49:00,69.1,64.7,30.10,SSW,209,4.0,4.0,86,0.00,CLR,,0.00,WeatherDisplay:10.37,2013-07-05 04:49:00,
2013-07-05 00:54:00,69.2,64.8,30.10,SSW,211,3.5,3.5,86,0.00,CLR,,0.00,WeatherDisplay:10.37,2013-07-05 04:54:00,
2013-07-05 00:59:00,69.2,64.8,30.10,SSW,211,3.5,3.5,86,0.00,CLR,,0.00,WeatherDisplay:10.37,2013-07-05 04:59:00,
2013-07-05 01:04:00,69.4,65.0,30.10,SSW,210,1.2,0.0,86,0.00,CLR,,0.00,WeatherDisplay:10.37,2013-07-05 05:04:00,
2013-07-05 01:09:00,69.3,64.9,30.10,SSW,211,3.5,3.5,86,0.00,CLR,,0.00,WeatherDisplay:10.37,2013-07-05 05:09:00,
2013-07-05 01:14:00,69.4,65.0,30.10,WSW,257,5.0,5.0,86,0.00,CLR,,0.00,WeatherDisplay:10.37,2013-07-05 05:14:00,
2013-07-05 01:19:00,69.3,64.9,30.11,West,276,4.0,4.0,86,0.00,CLR,,0.00,WeatherDisplay:10.37,2013-07-05 05:19:00,
2013-07-05 01:24:00,69.0,64.6,30.11,West,266,3.5,3.5,86,0.00,CLR,,0.00,WeatherDisplay:10.37,2013-07-05 05:24:00,
2013-07-05 01:29:00,69.0,64.6,30.11,West,265,0.0,0.0,86,0.00,CLR,,0.00,WeatherDisplay:10.37,2013-07-05 05:29:00,
2013-07-05 01:34:00,69.0,64.6,30.10,West,267,1.2,0.0,86,0.00,CLR,,0.00,WeatherDisplay:10.37,2013-07-05 05:34:00,
2013-07-05 01:39:00,69.1,64.7,30.10,West,267,2.3,0.0,86,0.00,CLR,,0.00,WeatherDisplay:10.37,2013-07-05 05:39:00,
2013-07-05 01:44:00,69.0,64.6,30.09,WSW,240,3.0,3.0,86,0.00,CLR,,0.00,WeatherDisplay:10.37,2013-07-05 05:44:00,
2013-07-05 01:49:00,69.2,64.8,30.09,WSW,240,3.5,3.5,86,0.00,CLR,,0.00,WeatherDisplay:10.37,2013-07-05 05:49:00,
2013-07-05 01:54:00,69.4,65.0,30.09,WSW,240,3.5,3.5,86,0.00,CLR,,0.00,WeatherDisplay:10.37,2013-07-05 05:54:00,
2013-07-05 01:59:00,69.5,65.1,30.09,WSW,240,4.0,4.0,86,0.00,CLR,,0.00,WeatherDisplay:10.37,2013-07-05 05:59:00,
2013-07-05 02:04:00,69.6,65.2,30.09,SSW,212,4.0,4.0,86,0.00,CLR,,0.00,WeatherDisplay:10.37,2013-07-05 06:04:00,
2013-07-05 02:09:00,69.7,65.3,30.09,SSW,192,5.0,5.0,86,0.00,CLR,,0.00,WeatherDisplay:10.37,2013-07-05 06:09:00,
2013-07-05 02:14:00,69.8,65.1,30.09,SSW,192,6.0,6.0,85,0.00,CLR,,0.00,WeatherDisplay:10.37,2013-07-05 06:14:00,
2013-07-05 02:19:00,69.9,65.2,30.08,South,186,5.0,5.0,85,0.00,CLR,,0.00,WeatherDisplay:10.37,2013-07-05 06:19:00,
2013-07-05 02:24:00,70.0,65.3,30.09,SSW,205,5.0,5.0,85,0.00,CLR,,0.00,WeatherDisplay:10.37,2013-07-05 06:24:00,
2013-07-05 02:29:00,69.9,65.2,30.09,SSW,196,4.6,4.6,85,0.00,CLR,,0.00,WeatherDisplay:10.37,2013-07-05 06:29:00,
2013-07-05 02:34:00,69.8,65.1,30.08,SSW,194,6.0,6.0,85,0.00,CLR,,0.00,WeatherDisplay:10.37,2013-07-05 06:34:00,
2013-07-05 02:39:00,69.7,65.0,30.09,South,188,5.0,5.0,85,0.00,CLR,,0.00,WeatherDisplay:10.37,2013-07-05 06:39:00,
2013-07-05 02:44:00,69.5,64.8,30.09,SSW,196,4.0,4.0,85,0.00,CLR,,0.00,WeatherDisplay:10.37,2013-07-05 06:44:00,
2013-07-05 02:49:00,69.4,64.7,30.09,SSW,200,4.0,4.0,85,0.00,CLR,,0.00,WeatherDisplay:10.37,2013-07-05 06:49:00,
2013-07-05 02:54:00,69.3,64.6,30.09,SSW,199,6.0,6.0,85,0.00,CLR,,0.00,WeatherDisplay:10.37,2013-07-05 06:54:00,
2013-07-05 02:59:00,69.3,64.6,30.08,SSW,206,7.0,7.0,85,0.00,CLR,,0.00,WeatherDisplay:10.37,2013-07-05 06:59:00,
2013-07-05 03:04:00,69.4,64.7,30.08,SSW,193,8.1,8.1,85,0.00,CLR,,0.00,WeatherDisplay:10.37,2013-07-05 07:04:00,
2013-07-05 03:09:00,69.5,64.8,30.08,SSW,203,8.1,8.1,85,0.00,CLR,,0.00,WeatherDisplay:10.37,2013-07-05 07:09:00,
2013-07-05 03:14:00,69.4,64.7,30.08,SSW,203,9.2,9.2,85,0.00,CLR,,0.00,WeatherDisplay:10.37,2013-07-05 07:14:00,
2013-07-05 03:19:00,69.3,64.6,30.08,SSW,193,10.4,10.4,85,0.00,CLR,,0.00,WeatherDisplay:10.37,2013-07-05 07:19:00,
2013-07-05 03:24:00,69.2,64.8,30.08,SSW,200,9.2,9.2,86,0.00,CLR,,0.00,WeatherDisplay:10.37,2013-07-05 07:24:00,
2013-07-05 03:29:00,69.0,64.6,30.09,SSW,212,8.1,8.1,86,0.00,CLR,,0.00,WeatherDisplay:10.37,2013-07-05 07:29:00,
2013-07-05 03:34:00,68.8,64.4,30.08,SSW,194,9.2,9.2,86,0.00,CLR,,0.00,WeatherDisplay:10.37,2013-07-05 07:34:00,
2013-07-05 03:39:00,68.6,64.2,30.08,SSW,196,7.0,7.0,86,0.00,CLR,,0.00,WeatherDisplay:10.37,2013-07-05 07:39:00,
2013-07-05 03:44:00,68.7,64.3,30.08,SSE,163,6.9,6.9,86,0.00,CLR,,0.00,WeatherDisplay:10.37,2013-07-05 07:44:00,
2013-07-05 03:49:00,68.8,64.4,30.08,SW,219,7.0,7.0,86,0.00,CLR,,0.00,WeatherDisplay:10.37,2013-07-05 07:49:00,
2013-07-05 03:54:00,68.8,64.4,30.08,SSW,198,5.0,5.0,86,0.00,CLR,,0.00,WeatherDisplay:10.37,2013-07-05 07:54:00,
2013-07-05 03:59:00,68.8,64.4,30.08,SSW,192,6.0,6.0,86,0.00,CLR,,0.00,WeatherDisplay:10.37,2013-07-05 07:59:00,
2013-07-05 04:04:00,68.9,64.9,30.08,South,184,10.4,10.4,87,0.00,CLR,,0.00,WeatherDisplay:10.37,2013-07-05 08:04:00,
2013-07-05 04:09:00,69.0,65.0,30.08,South,180,12.0,12.0,87,0.00,CLR,,0.00,WeatherDisplay:10.37,2013-07-05 08:09:00,
2013-07-05 04:14:00,69.0,65.0,30.08,South,180,9.2,9.2,87,0.00,CLR,,0.00,WeatherDisplay:10.37,2013-07-05 08:14:00,
2013-07-05 04:19:00,69.1,65.1,30.08,SSW,194,10.0,10.0,87,0.00,CLR,,0.00,WeatherDisplay:10.37,2013-07-05 08:19:00,
2013-07-05 04:24:00,69.2,64.8,30.08,SSW,201,12.0,12.0,86,0.00,CLR,,0.00,WeatherDisplay:10.37,2013-07-05 08:24:00,
2013-07-05 04:29:00,69.3,64.9,30.08,SSW,200,11.5,11.5,86,0.00,CLR,,0.00,WeatherDisplay:10.37,2013-07-05 08:29:00,
2013-07-05 04:34:00,69.3,64.9,30.08,SSW,200,12.0,12.0,86,0.00,CLR,,0.00,WeatherDisplay:10.37,2013-07-05 08:34:00,
2013-07-05 04:39:00,69.4,65.0,30.08,South,187,10.4,10.4,86,0.00,CLR,,0.00,WeatherDisplay:10.37,2013-07-05 08:39:00,
2013-07-05 04:44:00,69.4,65.0,30.08,South,187,8.1,8.1,86,0.00,CLR,,0.00,WeatherDisplay:10.37,2013-07-05 08:44:00,
2013-07-05 04:49:00,69.3,64.6,30.08,SSW,204,8.1,8.1,85,0.00,CLR,,0.00,WeatherDisplay:10.37,2013-07-05 08:49:00,
2013-07-05 04:55:00,69.2,64.5,30.08,SW,234,5.0,5.0,85,0.00,CLR,,0.00,WeatherDisplay:10.37,2013-07-05 08:55:00,
2013-07-05 05:00:00,69.2,64.5,30.08,SW,227,8.1,8.1,85,0.00,CLR,,0.00,WeatherDisplay:10.37,2013-07-05 09:00:00,
2013-07-05 05:05:00,69.2,64.5,30.08,SW,216,9.2,9.2,85,0.00,CLR,,0.00,WeatherDisplay:10.37,2013-07-05 09:05:00,
2013-07-05 05:10:00,69.2,64.5,30.07,SW,234,8.1,8.1,85,0.00,CLR,,0.00,WeatherDisplay:10.37,2013-07-05 09:10:00,
2013-07-05 05:15:00,69.2,64.5,30.08,SSW,200,8.1,8.1,85,0.00,CLR,,0.00,WeatherDisplay:10.37,2013-07-05 09:15:00,
2013-07-05 05:20:00,69.2,64.5,30.08,SSW,206,9.2,9.2,85,0.00,CLR,,0.00,WeatherDisplay:10.37,2013-07-05 09:20:00,
2013-07-05 05:25:00,69.2,64.2,30.08,SW,228,10.0,10.0,84,0.00,CLR,,0.00,WeatherDisplay:10.37,2013-07-05 09:25:00,
2013-07-05 05:30:00,69.3,64.3,30.08,SSW,194,10.4,10.4,84,0.00,CLR,,0.00,WeatherDisplay:10.37,2013-07-05 09:30:00,
2013-07-05 05:35:00,69.4,64.3,30.08,SSW,209,7.0,9.0,84,0.00,CLR,CLR,0.00,WeatherDisplay:10.37,2013-07-05 09:35:00,
2013-07-05 05:40:00,69.4,64.4,30.08,SSW,212,7.0,9.0,84,0.00,CLR,CLR,0.00,WeatherDisplay:10.37,2013-07-05 09:40:00,
2013-07-05 05:45:00,69.5,64.5,30.08,SW,217,6.0,8.0,84,0.00,CLR,CLR,0.00,WeatherDisplay:10.37,2013-07-05 09:45:00,
2013-07-05 05:50:00,69.5,64.5,30.08,SW,224,6.0,8.0,84,0.00,CLR,CLR,0.00,WeatherDisplay:10.37,2013-07-05 09:50:00,
2013-07-05 05:55:00,69.5,64.5,30.08,SW,219,7.0,13.0,84,0.00,CLR,CLR,0.00,WeatherDisplay:10.37,2013-07-05 09:55:00,
2013-07-05 06:00:00,69.7,64.3,30.08,SW,225,6.0,10.0,83,0.00,CLR,CLR,0.00,WeatherDisplay:10.37,2013-07-05 10:00:00,
2013-07-05 06:05:00,69.8,64.4,30.08,SW,214,6.0,6.0,83,0.00,CLR,,0.00,WeatherDisplay:10.37,2013-07-05 10:05:00,
2013-07-05 06:10:00,69.8,64.4,30.09,SW,222,6.9,6.9,83,0.00,CLR,,0.00,WeatherDisplay:10.37,2013-07-05 10:10:00,
2013-07-05 06:16:00,69.8,64.4,30.08,SSW,203,8.1,8.1,83,0.00,CLR,,0.00,WeatherDisplay:10.37,2013-07-05 10:16:00,
2013-07-05 06:21:00,69.7,64.3,30.09,SW,225,5.0,5.0,83,0.00,CLR,,0.00,WeatherDisplay:10.37,2013-07-05 10:21:00,
2013-07-05 06:26:00,69.5,64.1,30.09,SW,223,5.0,5.0,83,0.00,CLR,,0.00,WeatherDisplay:10.37,2013-07-05 10:26:00,
2013-07-05 06:31:00,69.6,64.2,30.08,SW,221,7.0,7.0,83,0.00,CLR,,0.00,WeatherDisplay:10.37,2013-07-05 10:31:00,
2013-07-05 06:36:00,69.7,64.3,30.08,SW,234,7.0,7.0,83,0.00,CLR,,0.00,WeatherDisplay:10.37,2013-07-05 10:36:00,
2013-07-05 06:41:00,69.9,64.5,30.08,SW,215,5.0,5.0,83,0.00,CLR,,0.00,WeatherDisplay:10.37,2013-07-05 10:41:00,
2013-07-05 06:46:00,70.0,64.2,30.08,SSW,209,9.2,9.2,82,0.00,CLR,,0.00,WeatherDisplay:10.37,2013-07-05 10:46:00,
2013-07-05 06:52:00,70.2,64.4,30.08,SSW,202,8.0,8.0,82,0.00,CLR,,0.00,WeatherDisplay:10.37,2013-07-05 10:52:00,
2013-07-05 06:57:00,70.3,64.5,30.09,SSW,197,7.0,7.0,82,0.00,CLR,,0.00,WeatherDisplay:10.37,2013-07-05 10:57:00,
2013-07-05 07:02:00,70.2,64.4,30.09,SSW,193,8.0,8.0,82,0.00,CLR,,0.00,WeatherDisplay:10.37,2013-07-05 11:02:00,
2013-07-05 07:07:00,70.1,64.3,30.09,SSW,203,6.0,6.0,82,0.00,CLR,,0.00,WeatherDisplay:10.37,2013-07-05 11:07:00,
2013-07-05 07:12:00,70.1,64.7,30.09,SSW,204,6.0,6.0,83,0.00,CLR,,0.00,WeatherDisplay:10.37,2013-07-05 11:12:00,
2013-07-05 07:17:00,70.0,64.6,30.09,SSW,200,5.0,5.0,83,0.00,CLR,,0.00,WeatherDisplay:10.37,2013-07-05 11:17:00,
2013-07-05 07:23:00,70.1,64.7,30.09,SSW,206,5.0,5.0,83,0.00,CLR,,0.00,WeatherDisplay:10.37,2013-07-05 11:23:00,
2013-07-05 07:28:00,70.2,64.8,30.09,SW,225,4.6,4.6,83,0.00,CLR,,0.00,WeatherDisplay:10.37,2013-07-05 11:28:00,
2013-07-05 07:34:00,70.4,64.6,30.09,WSW,238,5.0,5.0,82,0.00,CLR,,0.00,WeatherDisplay:10.37,2013-07-05 11:34:00,
2013-07-05 07:39:00,70.4,64.6,30.09,SW,218,4.6,4.6,82,0.00,CLR,,0.00,WeatherDisplay:10.37,2013-07-05 11:39:00,
2013-07-05 07:44:00,70.6,64.8,30.09,SW,228,5.0,5.0,82,0.00,CLR,,0.00,WeatherDisplay:10.37,2013-07-05 11:44:00,
2013-07-05 07:50:00,70.7,64.9,30.09,SW,230,5.0,5.0,82,0.00,CLR,,0.00,WeatherDisplay:10.37,2013-07-05 11:50:00,
2013-07-05 07:55:00,70.8,65.0,30.09,SSW,210,7.0,7.0,82,0.00,CLR,,0.00,WeatherDisplay:10.37,2013-07-05 11:55:00,
2013-07-05 08:01:00,71.0,65.2,30.10,SW,225,6.0,6.0,82,0.00,CLR,,0.00,WeatherDisplay:10.37,2013-07-05 12:01:00,
2013-07-05 08:06:00,71.2,65.4,30.09,SW,232,4.6,4.6,82,0.00,CLR,,0.00,WeatherDisplay:10.37,2013-07-05 12:06:00,
2013-07-05 08:11:00,71.3,65.5,30.10,SW,221,4.0,4.0,82,0.00,CLR,,0.00,WeatherDisplay:10.37,2013-07-05 12:11:00,
2013-07-05 08:16:00,71.3,65.2,30.10,SW,230,4.0,4.0,81,0.00,CLR,,0.00,WeatherDisplay:10.37,2013-07-05 12:16:00,
2013-07-05 08:22:00,71.5,65.4,30.10,SW,227,4.0,4.0,81,0.00,CLR,,0.00,WeatherDisplay:10.37,2013-07-05 12:22:00,
2013-07-05 08:27:00,71.8,65.7,30.10,SW,229,4.6,4.6,81,0.00,CLR,,0.00,WeatherDisplay:10.37,2013-07-05 12:27:00,
2013-07-05 08:32:00,72.2,66.0,30.10,WSW,254,6.0,6.0,81,0.00,CLR,,0.00,WeatherDisplay:10.37,2013-07-05 12:32:00,
2013-07-05 08:37:00,72.4,66.2,30.10,SSW,204,7.0,7.0,81,0.00,CLR,,0.00,WeatherDisplay:10.37,2013-07-05 12:37:00,
2013-07-05 08:42:00,72.6,66.1,30.10,SW,232,11.5,11.5,80,0.00,CLR,,0.00,WeatherDisplay:10.37,2013-07-05 12:42:00,
2013-07-05 08:47:00,72.8,66.3,30.11,SW,232,9.2,9.2,80,0.00,CLR,,0.00,WeatherDisplay:10.37,2013-07-05 12:47:00,
2013-07-05 08:52:00,73.0,66.1,30.11,SW,236,10.0,10.0,79,0.00,CLR,,0.00,WeatherDisplay:10.37,2013-07-05 12:52:00,
2013-07-05 08:58:00,73.1,66.2,30.11,WSW,240,8.1,8.1,79,0.00,CLR,,0.00,WeatherDisplay:10.37,2013-07-05 12:58:00,
2013-07-05 09:03:00,73.1,66.2,30.11,SW,215,8.0,8.0,79,0.00,CLR,,0.00,WeatherDisplay:10.37,2013-07-05 13:03:00,
2013-07-05 09:08:00,73.3,66.4,30.11,West,259,8.1,8.1,79,0.00,CLR,,0.00,WeatherDisplay:10.37,2013-07-05 13:08:00,
2013-07-05 09:13:00,73.8,66.1,30.11,SW,217,9.2,9.2,77,0.00,CLR,,0.00,WeatherDisplay:10.37,2013-07-05 13:13:00,
2013-07-05 09:18:00,73.9,66.2,30.11,WSW,242,10.4,10.4,77,0.00,CLR,,0.00,WeatherDisplay:10.37,2013-07-05 13:18:00,
2013-07-05 09:23:00,73.7,66.0,30.11,SW,218,12.0,12.0,77,0.00,CLR,,0.00,WeatherDisplay:10.37,2013-07-05 13:23:00,
2013-07-05 09:28:00,73.7,66.4,30.11,SW,232,7.0,7.0,78,0.00,CLR,,0.00,WeatherDisplay:10.37,2013-07-05 13:28:00,
2013-07-05 09:33:00,73.9,66.6,30.11,SW,225,9.2,9.2,78,0.00,CLR,,0.00,WeatherDisplay:10.37,2013-07-05 13:33:00,
2013-07-05 09:39:00,74.1,66.8,30.11,SW,229,7.0,7.0,78,0.00,CLR,,0.00,WeatherDisplay:10.37,2013-07-05 13:39:00,
2013-07-05 09:44:00,74.4,67.1,30.11,SW,228,8.1,8.1,78,0.00,CLR,,0.00,WeatherDisplay:10.37,2013-07-05 13:44:00,
2013-07-05 09:49:00,74.5,67.2,30.11,SW,232,10.4,10.4,78,0.00,CLR,,0.00,WeatherDisplay:10.37,2013-07-05 13:49:00,
2013-07-05 09:54:00,75.4,67.7,30.11,West,261,13.0,13.0,77,0.00,CLR,,0.00,WeatherDisplay:10.37,2013-07-05 13:54:00,
2013-07-05 10:00:00,76.2,68.1,30.11,WSW,238,8.0,10.0,76,0.00,CLR,CLR,0.00,WeatherDisplay:10.37,2013-07-05 14:00:00,
2013-07-05 10:05:00,76.6,67.7,30.11,SW,235,9.0,14.0,74,0.00,CLR,CLR,0.00,WeatherDisplay:10.37,2013-07-05 14:05:00,
2013-07-05 10:10:00,76.5,67.6,30.11,WSW,240,10.0,14.0,74,0.00,CLR,CLR,0.00,WeatherDisplay:10.37,2013-07-05 14:10:00,
2013-07-05 10:15:00,76.2,67.7,30.11,WSW,243,9.0,13.0,75,0.00,CLR,CLR,0.00,WeatherDisplay:10.37,2013-07-05 14:15:00,
2013-07-05 10:20:00,76.4,67.5,30.11,SW,232,10.0,14.0,74,0.00,CLR,CLR,0.00,WeatherDisplay:10.37,2013-07-05 14:20:00,
2013-07-05 10:25:00,76.5,67.6,30.11,SW,230,9.0,13.0,74,0.00,CLR,CLR,0.00,WeatherDisplay:10.37,2013-07-05 14:25:00,
2013-07-05 10:30:00,77.1,68.2,30.11,WSW,238,10.0,16.0,74,0.00,CLR,CLR,0.00,WeatherDisplay:10.37,2013-07-05 14:30:00,
2013-07-05 10:35:00,77.0,67.7,30.11,WSW,240,12.0,16.0,73,0.00,CLR,CLR,0.00,WeatherDisplay:10.37,2013-07-05 14:35:00,
2013-07-05 10:40:00,76.7,67.4,30.11,SW,235,12.0,15.0,73,0.00,CLR,CLR,0.00,WeatherDisplay:10.37,2013-07-05 14:40:00,
2013-07-05 10:45:00,77.5,68.2,30.11,WSW,253,12.7,12.7,73,0.00,CLR,,0.00,WeatherDisplay:10.37,2013-07-05 14:45:00,
2013-07-05 10:51:00,78.0,68.2,30.11,SW,223,14.0,14.0,72,0.00,CLR,,0.00,WeatherDisplay:10.37,2013-07-05 14:51:00,
2013-07-05 10:56:00,78.7,68.5,30.11,WSW,240,14.0,14.0,71,0.00,CLR,,0.00,WeatherDisplay:10.37,2013-07-05 14:56:00,
2013-07-05 11:01:00,78.7,68.1,30.11,SSW,207,17.3,17.3,70,0.01,RA,,0.01,WeatherDisplay:10.37,2013-07-05 15:01:00,
2013-07-05 11:06:00,78.3,67.7,30.11,SW,226,15.0,15.0,70,0.01,RA,,0.01,WeatherDisplay:10.37,2013-07-05 15:06:00,
2013-07-05 11:11:00,78.5,68.3,30.11,SW,236,17.3,17.3,71,0.01,CLR,,0.01,WeatherDisplay:10.37,2013-07-05 15:11:00,
2013-07-05 11:16:00,78.7,68.1,30.12,SW,225,12.7,12.7,70,0.01,CLR,,0.01,WeatherDisplay:10.37,2013-07-05 15:16:00,
2013-07-05 11:21:00,79.1,68.1,30.11,SSW,192,16.1,16.1,69,0.01,CLR,,0.01,WeatherDisplay:10.37,2013-07-05 15:21:00,
2013-07-05 11:26:00,79.7,68.6,30.12,SW,229,16.1,16.1,69,0.01,CLR,,0.01,WeatherDisplay:10.37,2013-07-05 15:26:00,
2013-07-05 11:31:00,80.0,68.5,30.11,WSW,239,16.1,16.1,68,0.01,CLR,,0.01,WeatherDisplay:10.37,2013-07-05 15:31:00,
2013-07-05 11:36:00,80.3,68.8,30.12,SW,235,18.4,18.4,68,0.01,CLR,,0.01,WeatherDisplay:10.37,2013-07-05 15:36:00,
2013-07-05 11:41:00,80.3,68.8,30.12,SW,231,19.6,19.6,68,0.01,CLR,,0.01,WeatherDisplay:10.37,2013-07-05 15:41:00,
2013-07-05 11:46:00,79.9,68.4,30.12,SW,219,12.0,12.0,68,0.01,CLR,,0.01,WeatherDisplay:10.37,2013-07-05 15:46:00,
2013-07-05 11:49:00,80.3,68.3,30.11,SW,214,14.0,14.0,67,0.01,CLR,,0.01,WeatherDisplay:10.37,2013-07-05 15:49:00,
2013-07-05 11:54:00,80.3,68.8,30.11,SW,232,14.0,14.0,68,0.01,CLR,,0.01,WeatherDisplay:10.37,2013-07-05 15:54:00,
2013-07-05 11:59:00,81.1,69.5,30.11,SSW,193,12.0,12.0,68,0.00,CLR,,0.01,WeatherDisplay:10.37,2013-07-05 15:59:00,
2013-07-05 12:04:00,80.6,68.2,30.11,South,180,13.0,13.0,66,0.00,CLR,,0.01,WeatherDisplay:10.37,2013-07-05 16:04:00,
2013-07-05 12:05:00,80.5,68.5,30.11,SW,230,10.0,13.0,67,0.00,CLR,CLR,0.01,WeatherDisplay:10.37,2013-07-05 16:05:00,
2013-07-05 12:10:00,80.8,68.8,30.11,SW,225,19.0,19.0,67,0.00,CLR,,0.01,WeatherDisplay:10.37,2013-07-05 16:10:00,
2013-07-05 12:15:00,81.2,68.3,30.11,SW,229,12.0,12.0,65,0.00,CLR,,0.01,WeatherDisplay:10.37,2013-07-05 16:15:00,
2013-07-05 12:20:00,82.0,69.1,30.11,SW,229,17.0,17.0,65,0.00,CLR,,0.01,WeatherDisplay:10.37,2013-07-05 16:20:00,
2013-07-05 12:25:00,82.1,69.2,30.11,WSW,245,18.4,18.4,65,0.00,CLR,,0.01,WeatherDisplay:10.37,2013-07-05 16:25:00,
2013-07-05 12:30:00,82.5,69.1,30.11,WSW,252,14.0,14.0,64,0.00,CLR,,0.01,WeatherDisplay:10.37,2013-07-05 16:30:00,
2013-07-05 12:35:00,81.7,68.3,30.11,WSW,243,17.3,17.3,64,0.00,CLR,,0.01,WeatherDisplay:10.37,2013-07-05 16:35:00,
2013-07-05 12:40:00,81.5,68.1,30.11,SW,234,17.3,17.3,64,0.00,CLR,,0.01,WeatherDisplay:10.37,2013-07-05 16:40:00,
2013-07-05 12:45:00,81.0,68.1,30.11,WSW,250,15.0,15.0,65,0.00,CLR,,0.01,WeatherDisplay:10.37,2013-07-05 16:45:00,
2013-07-05 12:50:00,80.8,67.9,30.11,West,264,15.0,15.0,65,0.00,CLR,,0.01,WeatherDisplay:10.37,2013-07-05 16:50:00,
2013-07-05 12:55:00,80.0,67.2,30.11,SW,234,15.0,15.0,65,0.00,CLR,,0.01,WeatherDisplay:10.37,2013-07-05 16:55:00,
2013-07-05 13:00:00,80.2,67.8,30.11,SW,234,13.0,13.0,66,0.00,CLR,,0.01,WeatherDisplay:10.37,2013-07-05 17:00:00,
2013-07-05 13:05:00,80.9,68.9,30.11,SW,228,13.0,13.0,67,0.00,CLR,,0.01,WeatherDisplay:10.37,2013-07-05 17:05:00,
2013-07-05 13:10:00,81.4,68.9,30.11,SW,229,14.0,14.0,66,0.00,CLR,,0.01,WeatherDisplay:10.37,2013-07-05 17:10:00,
2013-07-05 13:15:00,80.8,68.4,30.11,WSW,238,14.0,14.0,66,0.00,CLR,,0.01,WeatherDisplay:10.37,2013-07-05 17:15:00,
2013-07-05 13:20:00,80.6,68.2,30.11,SSW,207,13.8,13.8,66,0.00,CLR,,0.01,WeatherDisplay:10.37,2013-07-05 17:20:00,
2013-07-05 13:25:00,81.1,69.1,30.11,West,261,12.0,12.0,67,0.00,CLR,,0.01,WeatherDisplay:10.37,2013-07-05 17:25:00,
2013-07-05 13:30:00,80.7,68.3,30.11,WSW,254,11.5,11.5,66,0.00,CLR,,0.01,WeatherDisplay:10.37,2013-07-05 17:30:00,
2013-07-05 13:35:00,80.8,68.4,30.11,West,262,16.1,16.1,66,0.00,CLR,,0.01,WeatherDisplay:10.37,2013-07-05 17:35:00,
2013-07-05 13:40:00,81.9,69.4,30.10,SW,234,17.0,17.0,66,0.00,CLR,,0.01,WeatherDisplay:10.37,2013-07-05 17:40:00,
2013-07-05 13:45:00,82.0,69.1,30.10,West,265,13.8,13.8,65,0.00,CLR,,0.01,WeatherDisplay:10.37,2013-07-05 17:45:00,
2013-07-05 13:50:00,82.3,69.4,30.10,SW,227,20.0,20.0,65,0.00,CLR,,0.01,WeatherDisplay:10.37,2013-07-05 17:50:00,
2013-07-05 13:55:00,82.1,69.2,30.10,WSW,237,16.0,16.0,65,0.00,CLR,,0.01,WeatherDisplay:10.37,2013-07-05 17:55:00,
2013-07-05 14:00:00,82.3,68.9,30.10,SW,236,15.0,15.0,64,0.00,CLR,,0.01,WeatherDisplay:10.37,2013-07-05 18:00:00,
2013-07-05 14:05:00,82.3,69.4,30.09,West,263,15.0,15.0,65,0.00,CLR,,0.01,WeatherDisplay:10.37,2013-07-05 18:05:00,
2013-07-05 14:10:00,82.9,69.0,30.09,SW,215,17.0,17.0,63,0.00,CLR,,0.01,WeatherDisplay:10.37,2013-07-05 18:10:00,
2013-07-05 14:15:00,83.0,69.1,30.09,SW,229,14.0,14.0,63,0.00,CLR,,0.01,WeatherDisplay:10.37,2013-07-05 18:15:00,
2013-07-05 14:20:00,83.5,67.7,30.09,SW,236,17.3,17.3,59,0.00,CLR,,0.01,WeatherDisplay:10.37,2013-07-05 18:20:00,
2013-07-05 14:25:00,82.6,68.3,30.09,West,268,17.3,17.3,62,0.00,CLR,,0.01,WeatherDisplay:10.37,2013-07-05 18:25:00,
2013-07-05 14:26:00,82.5,68.6,30.09,WSW,242,16.1,16.1,63,0.00,CLR,,0.01,WeatherDisplay:10.37,2013-07-05 18:26:00,
2013-07-05 14:31:00,82.6,68.7,30.09,West,263,12.7,12.7,63,0.00,CLR,,0.01,WeatherDisplay:10.37,2013-07-05 18:31:00,
2013-07-05 14:36:00,81.2,66.9,30.09,West,265,17.3,17.3,62,0.00,CLR,,0.01,WeatherDisplay:10.37,2013-07-05 18:36:00,
2013-07-05 14:41:00,80.3,66.6,30.09,West,262,11.5,11.5,63,0.00,CLR,,0.01,WeatherDisplay:10.37,2013-07-05 18:41:00,
2013-07-05 14:46:00,80.5,68.1,30.09,West,277,11.0,11.0,66,0.00,CLR,,0.01,WeatherDisplay:10.37,2013-07-05 18:46:00,
2013-07-05 14:51:00,80.3,67.5,30.09,WSW,257,12.0,12.0,65,0.00,CLR,,0.01,WeatherDisplay:10.37,2013-07-05 18:51:00,
2013-07-05 14:56:00,79.9,67.5,30.09,WSW,252,10.4,10.4,66,0.00,CLR,,0.01,WeatherDisplay:10.37,2013-07-05 18:56:00,
2013-07-05 14:57:00,79.9,67.5,30.09,WSW,252,10.4,10.4,66,0.00,CLR,,0.01,WeatherDisplay:10.37,2013-07-05 18:57:00,
2013-07-05 15:02:00,79.5,68.4,30.09,WNW,287,10.4,10.4,69,0.00,CLR,,0.01,WeatherDisplay:10.37,2013-07-05 19:02:00,
2013-07-05 15:07:00,78.7,67.7,30.09,WSW,243,10.0,10.0,69,0.00,CLR,,0.01,WeatherDisplay:10.37,2013-07-05 19:07:00,
2013-07-05 15:12:00,78.4,68.6,30.09,West,272,9.0,9.0,72,0.00,CLR,,0.01,WeatherDisplay:10.37,2013-07-05 19:12:00,
2013-07-05 15:17:00,77.7,68.4,30.10,WSW,244,9.2,9.2,73,0.00,CLR,,0.02,WeatherDisplay:10.37,2013-07-05 19:17:00,
2013-07-05 15:22:00,76.1,68.0,30.10,West,263,16.1,16.1,76,0.01,RA,,0.03,WeatherDisplay:10.37,2013-07-05 19:22:00,
2013-07-05 15:27:00,74.9,67.6,30.09,West,269,13.0,13.0,78,0.03,RA,,0.04,WeatherDisplay:10.37,2013-07-05 19:27:00,
2013-07-05 15:32:00,74.4,68.2,30.09,SW,228,10.4,10.4,81,0.04,RA,,0.05,WeatherDisplay:10.37,2013-07-05 19:32:00,
2013-07-05 15:37:00,74.6,68.4,30.09,WSW,237,11.0,11.0,81,0.04,RA,,0.05,WeatherDisplay:10.37,2013-07-05 19:37:00,
2013-07-05 15:42:00,75.2,69.0,30.08,SW,227,10.4,10.4,81,0.04,CLR,,0.05,WeatherDisplay:10.37,2013-07-05 19:42:00,
2013-07-05 15:47:00,75.9,69.3,30.08,SW,229,10.4,10.4,80,0.04,CLR,,0.05,WeatherDisplay:10.37,2013-07-05 19:47:00,
2013-07-05 15:52:00,76.3,70.0,30.08,SW,225,7.0,7.0,81,0.04,CLR,,0.05,WeatherDisplay:10.37,2013-07-05 19:52:00,
2013-07-05 15:57:00,76.7,69.3,30.08,SW,227,7.0,7.0,78,0.04,CLR,,0.05,WeatherDisplay:10.37,2013-07-05 19:57:00,
2013-07-05 16:02:00,77.3,70.3,30.08,West,265,9.2,9.2,79,0.04,CLR,,0.05,WeatherDisplay:10.37,2013-07-05 20:02:00,
2013-07-05 16:07:00,78.8,70.6,30.08,WSW,256,7.0,7.0,76,0.04,CLR,,0.05,WeatherDisplay:10.37,2013-07-05 20:07:00,
2013-07-05 16:12:00,78.7,70.5,30.08,WSW,240,9.2,9.2,76,0.04,CLR,,0.05,WeatherDisplay:10.37,2013-07-05 20:12:00,
2013-07-05 16:17:00,78.5,69.9,30.07,SW,223,8.1,8.1,75,0.03,CLR,,0.05,WeatherDisplay:10.37,2013-07-05 20:17:00,
2013-07-05 16:22:00,78.5,69.1,30.07,SW,216,11.5,11.5,73,0.03,CLR,,0.05,WeatherDisplay:10.37,2013-07-05 20:22:00,
2013-07-05 16:27:00,78.9,70.3,30.07,SW,232,10.0,10.0,75,0.01,CLR,,0.05,WeatherDisplay:10.37,2013-07-05 20:27:00,
2013-07-05 16:32:00,80.0,70.6,30.07,SW,232,12.0,12.0,73,0.00,CLR,,0.05,WeatherDisplay:10.37,2013-07-05 20:32:00,
2013-07-05 16:34:00,80.4,70.5,30.07,SW,234,12.0,12.0,72,0.00,CLR,,0.05,WeatherDisplay:10.37,2013-07-05 20:34:00,
2013-07-05 16:39:00,79.8,69.1,30.07,SW,232,11.5,11.5,70,0.00,CLR,,0.05,WeatherDisplay:10.37,2013-07-05 20:39:00,
2013-07-05 16:44:00,79.6,69.0,30.07,SW,228,12.0,12.0,70,0.00,CLR,,0.05,WeatherDisplay:10.37,2013-07-05 20:44:00,
2013-07-05 16:49:00,80.4,69.3,30.06,WSW,237,10.4,10.4,69,0.00,CLR,,0.05,WeatherDisplay:10.37,2013-07-05 20:49:00,
2013-07-05 16:54:00,80.9,69.3,30.06,WSW,238,11.5,11.5,68,0.00,CLR,,0.05,WeatherDisplay:10.37,2013-07-05 20:54:00,
2013-07-05 16:59:00,81.0,69.4,30.06,SW,229,13.0,13.0,68,0.00,CLR,,0.05,WeatherDisplay:10.37,2013-07-05 20:59:00,
2013-07-05 17:04:00,80.8,69.7,30.06,West,260,9.2,9.2,69,0.00,CLR,,0.05,WeatherDisplay:10.37,2013-07-05 21:04:00,
2013-07-05 17:09:00,80.8,68.4,30.06,SSW,213,11.5,11.5,66,0.00,CLR,,0.05,WeatherDisplay:10.37,2013-07-05 21:09:00,
2013-07-05 17:14:00,80.9,68.9,30.06,SW,226,12.0,12.0,67,0.00,CLR,,0.05,WeatherDisplay:10.37,2013-07-05 21:14:00,
2013-07-05 17:19:00,81.1,69.5,30.06,WSW,250,15.0,15.0,68,0.00,CLR,,0.05,WeatherDisplay:10.37,2013-07-05 21:19:00,
2013-07-05 17:24:00,81.1,69.1,30.06,SW,233,15.0,15.0,67,0.00,CLR,,0.05,WeatherDisplay:10.37,2013-07-05 21:24:00,
2013-07-05 17:29:00,80.7,68.7,30.06,WSW,256,11.5,11.5,67,0.00,CLR,,0.05,WeatherDisplay:10.37,2013-07-05 21:29:00,
2013-07-05 17:34:00,80.8,68.8,30.06,West,259,12.0,12.0,67,0.00,CLR,,0.05,WeatherDisplay:10.37,2013-07-05 21:34:00,
2013-07-05 17:39:00,80.2,68.7,30.06,SW,231,10.4,10.4,68,0.00,CLR,,0.05,WeatherDisplay:10.37,2013-07-05 21:39:00,
2013-07-05 17:44:00,79.9,68.8,30.05,WSW,254,9.2,9.2,69,0.00,CLR,,0.05,WeatherDisplay:10.37,2013-07-05 21:44:00,
2013-07-05 17:49:00,80.0,68.9,30.05,WSW,252,7.0,7.0,69,0.00,CLR,,0.05,WeatherDisplay:10.37,2013-07-05 21:49:00,
2013-07-05 17:54:00,80.6,69.1,30.05,SW,232,14.0,14.0,68,0.00,CLR,,0.05,WeatherDisplay:10.37,2013-07-05 21:54:00,
2013-07-05 17:59:00,80.7,69.2,30.05,SW,228,14.0,14.0,68,0.00,CLR,,0.05,WeatherDisplay:10.37,2013-07-05 21:59:00,
2013-07-05 18:04:00,80.7,68.7,30.05,West,269,12.0,12.0,67,0.00,CLR,,0.05,WeatherDisplay:10.37,2013-07-05 22:04:00,
2013-07-05 18:09:00,80.0,68.1,30.05,WSW,240,8.1,8.1,67,0.00,CLR,,0.05,WeatherDisplay:10.37,2013-07-05 22:09:00,
2013-07-05 18:14:00,79.6,68.1,30.05,SW,236,9.2,9.2,68,0.00,CLR,,0.05,WeatherDisplay:10.37,2013-07-05 22:14:00,
2013-07-05 18:19:00,79.6,69.0,30.05,WSW,257,8.1,8.1,70,0.00,CLR,,0.05,WeatherDisplay:10.37,2013-07-05 22:19:00,
2013-07-05 18:24:00,79.9,68.8,30.05,WSW,240,8.1,8.1,69,0.00,CLR,,0.05,WeatherDisplay:10.37,2013-07-05 22:24:00,
2013-07-05 18:29:00,80.1,69.0,30.05,SW,225,10.0,10.0,69,0.00,CLR,,0.05,WeatherDisplay:10.37,2013-07-05 22:29:00,
2013-07-05 18:34:00,80.1,68.6,30.05,SW,226,9.2,9.2,68,0.00,CLR,,0.05,WeatherDisplay:10.37,2013-07-05 22:34:00,
2013-07-05 18:39:00,80.2,68.7,30.05,SW,229,8.1,8.1,68,0.00,CLR,,0.05,WeatherDisplay:10.37,2013-07-05 22:39:00,
2013-07-05 18:44:00,80.1,68.2,30.04,SW,236,8.1,8.1,67,0.00,CLR,,0.05,WeatherDisplay:10.37,2013-07-05 22:44:00,
2013-07-05 18:49:00,80.2,67.8,30.04,SW,221,11.5,11.5,66,0.00,CLR,,0.05,WeatherDisplay:10.37,2013-07-05 22:49:00,
2013-07-05 18:54:00,80.1,67.3,30.04,SW,229,12.7,12.7,65,0.00,CLR,,0.05,WeatherDisplay:10.37,2013-07-05 22:54:00,
2013-07-05 18:59:00,80.2,67.4,30.05,SW,230,9.2,9.2,65,0.00,CLR,,0.05,WeatherDisplay:10.37,2013-07-05 22:59:00,
2013-07-05 19:04:00,80.0,67.2,30.05,SW,235,11.0,11.0,65,0.00,CLR,,0.05,WeatherDisplay:10.37,2013-07-05 23:04:00,
2013-07-05 19:09:00,79.8,67.4,30.05,WSW,240,11.5,11.5,66,0.00,CLR,,0.05,WeatherDisplay:10.37,2013-07-05 23:09:00,
2013-07-05 19:14:00,79.6,66.8,30.05,WSW,241,12.0,12.0,65,0.00,CLR,,0.05,WeatherDisplay:10.37,2013-07-05 23:14:00,
2013-07-05 19:19:00,79.5,67.1,30.05,WSW,250,12.0,12.0,66,0.00,CLR,,0.05,WeatherDisplay:10.37,2013-07-05 23:19:00,
2013-07-05 19:24:00,79.4,67.0,30.05,SW,232,10.4,10.4,66,0.00,CLR,,0.05,WeatherDisplay:10.37,2013-07-05 23:24:00,
2013-07-05 19:29:00,79.3,67.0,30.05,West,267,11.5,11.5,66,0.00,CLR,,0.05,WeatherDisplay:10.37,2013-07-05 23:29:00,
2013-07-05 19:34:00,79.0,66.7,30.05,SW,225,10.4,10.4,66,0.00,CLR,,0.05,WeatherDisplay:10.37,2013-07-05 23:34:00,
2013-07-05 19:39:00,78.7,66.8,30.05,WSW,256,7.0,7.0,67,0.00,CLR,,0.05,WeatherDisplay:10.37,2013-07-05 23:39:00,
2013-07-05 19:44:00,78.5,67.1,30.06,SW,230,8.0,8.0,68,0.00,CLR,,0.05,WeatherDisplay:10.37,2013-07-05 23:44:00,
2013-07-05 19:49:00,78.3,66.9,30.06,SSW,210,7.0,7.0,68,0.00,CLR,,0.05,WeatherDisplay:10.37,2013-07-05 23:49:00,
2013-07-05 19:54:00,78.0,67.0,30.06,SW,220,6.0,6.0,69,0.00,CLR,,0.05,WeatherDisplay:10.37,2013-07-05 23:54:00,
2013-07-05 19:59:00,78.0,66.6,30.06,WSW,240,7.0,7.0,68,0.00,CLR,,0.05,WeatherDisplay:10.37,2013-07-05 23:59:00,
2013-07-05 20:05:00,78.0,67.0,30.07,South,188,7.0,7.0,69,0.00,CLR,,0.05,WeatherDisplay:10.37,2013-07-06 00:05:00,
2013-07-05 20:10:00,77.8,66.4,30.07,SW,232,12.0,12.0,68,0.00,CLR,,0.05,WeatherDisplay:10.37,2013-07-06 00:10:00,
2013-07-05 20:15:00,77.6,66.6,30.07,SW,229,9.2,9.2,69,0.00,CLR,,0.05,WeatherDisplay:10.37,2013-07-06 00:15:00,
2013-07-05 20:20:00,77.4,66.4,30.07,SW,229,9.2,9.2,69,0.00,CLR,,0.05,WeatherDisplay:10.37,2013-07-06 00:20:00,
2013-07-05 20:25:00,77.1,66.1,30.07,SW,229,8.1,8.1,69,0.00,CLR,,0.05,WeatherDisplay:10.37,2013-07-06 00:25:00,
2013-07-05 20:30:00,77.0,66.5,30.07,WSW,246,7.0,7.0,70,0.00,CLR,,0.05,WeatherDisplay:10.37,2013-07-06 00:30:00,
2013-07-05 20:35:00,76.9,66.4,30.07,SW,232,6.0,6.0,70,0.00,CLR,,0.05,WeatherDisplay:10.37,2013-07-06 00:35:00,
2013-07-05 20:40:00,76.6,66.5,30.07,SW,229,5.0,7.0,71,0.00,CLR,CLR,0.05,WeatherDisplay:10.37,2013-07-06 00:40:00,
2013-07-05 20:45:00,76.3,66.2,30.07,SW,225,5.0,7.0,71,0.00,CLR,CLR,0.05,WeatherDisplay:10.37,2013-07-06 00:45:00,
2013-07-05 20:50:00,76.1,66.4,30.07,SW,227,5.0,5.0,72,0.00,CLR,,0.05,WeatherDisplay:10.37,2013-07-06 00:50:00,
2013-07-05 20:55:00,76.1,66.4,30.07,SSW,207,6.0,6.0,72,0.00,CLR,,0.05,WeatherDisplay:10.37,2013-07-06 00:55:00,
2013-07-05 21:00:00,76.1,66.4,30.07,SW,227,6.0,6.0,72,0.00,CLR,,0.05,WeatherDisplay:10.37,2013-07-06 01:00:00,
2013-07-05 21:05:00,76.2,66.5,30.07,SW,219,5.0,5.0,72,0.00,CLR,,0.05,WeatherDisplay:10.37,2013-07-06 01:05:00,
2013-07-05 21:10:00,76.0,66.3,30.07,SW,233,5.0,5.0,72,0.00,CLR,,0.05,WeatherDisplay:10.37,2013-07-06 01:10:00,
2013-07-05 21:15:00,75.9,66.2,30.07,SW,232,5.0,5.0,72,0.00,CLR,,0.05,WeatherDisplay:10.37,2013-07-06 01:15:00,
2013-07-05 21:20:00,75.7,66.4,30.07,SW,222,5.0,5.0,73,0.00,CLR,,0.05,WeatherDisplay:10.37,2013-07-06 01:20:00,
2013-07-05 21:25:00,75.4,66.1,30.07,SW,215,5.0,5.0,73,0.00,CLR,,0.05,WeatherDisplay:10.37,2013-07-06 01:25:00,
2013-07-05 21:30:00,75.5,66.6,30.07,SW,219,3.0,4.0,74,0.00,CLR,CLR,0.05,WeatherDisplay:10.37,2013-07-06 01:30:00,
2013-07-05 21:35:00,75.7,66.4,30.08,SW,232,3.5,3.5,73,0.00,CLR,,0.05,WeatherDisplay:10.37,2013-07-06 01:35:00,
2013-07-05 21:40:00,75.7,66.4,30.08,SW,225,3.5,3.5,73,0.00,CLR,,0.05,WeatherDisplay:10.37,2013-07-06 01:40:00,
2013-07-05 21:45:00,75.6,66.3,30.08,SSW,213,5.0,5.0,73,0.00,CLR,,0.05,WeatherDisplay:10.37,2013-07-06 01:45:00,
2013-07-05 21:50:00,75.7,66.4,30.08,SW,214,4.0,4.0,73,0.00,CLR,,0.05,WeatherDisplay:10.37,2013-07-06 01:50:00,
2013-07-05 21:55:00,75.3,66.4,30.08,SW,219,3.5,3.5,74,0.00,CLR,,0.05,WeatherDisplay:10.37,2013-07-06 01:55:00,
2013-07-05 21:56:00,75.3,66.4,30.08,SW,219,3.5,3.5,74,0.00,CLR,,0.05,WeatherDisplay:10.37,2013-07-06 01:56:00,
2013-07-05 22:01:00,75.1,66.2,30.08,SW,223,4.0,4.0,74,0.00,CLR,,0.05,WeatherDisplay:10.37,2013-07-06 02:01:00,
2013-07-05 22:06:00,75.2,66.3,30.08,SW,223,4.0,4.0,74,0.00,CLR,,0.05,WeatherDisplay:10.37,2013-07-06 02:06:00,
2013-07-05 22:11:00,75.5,66.6,30.08,SW,223,4.0,4.0,74,0.00,CLR,,0.05,WeatherDisplay:10.37,2013-07-06 02:11:00,
2013-07-05 22:16:00,75.4,66.5,30.08,SW,236,2.3,2.3,74,0.00,CLR,,0.05,WeatherDisplay:10.37,2013-07-06 02:16:00,
2013-07-05 22:21:00,75.1,66.2,30.09,SSW,205,4.0,4.0,74,0.00,CLR,,0.05,WeatherDisplay:10.37,2013-07-06 02:21:00,
2013-07-05 22:26:00,75.0,66.1,30.09,SW,216,3.5,3.5,74,0.00,CLR,,0.05,WeatherDisplay:10.37,2013-07-06 02:26:00,
2013-07-05 22:31:00,74.9,66.1,30.09,SW,217,4.0,4.0,74,0.00,CLR,,0.05,WeatherDisplay:10.37,2013-07-06 02:31:00,
2013-07-05 22:36:00,74.9,66.1,30.09,SW,215,4.0,4.0,74,0.00,CLR,,0.05,WeatherDisplay:10.37,2013-07-06 02:36:00,
2013-07-05 22:41:00,74.9,66.1,30.09,SW,228,4.0,4.0,74,0.00,CLR,,0.05,WeatherDisplay:10.37,2013-07-06 02:41:00,
2013-07-05 22:45:00,74.8,68.2,30.12,SW,221,3.0,8.0,80,0.00,RA,RA,0.04,WeatherDisplay:10.37,2013-07-06 02:45:00,
2013-07-05 22:46:00,75.2,66.3,30.09,SW,219,4.0,4.0,74,0.00,CLR,,0.05,WeatherDisplay:10.37,2013-07-06 02:46:00,
2013-07-05 22:50:00,74.8,68.2,30.12,SW,223,6.0,7.0,80,0.00,RA,RA,0.04,WeatherDisplay:10.37,2013-07-06 02:50:00,
2013-07-05 22:51:00,75.0,66.1,30.09,SW,218,3.5,3.5,74,0.00,CLR,,0.05,WeatherDisplay:10.37,2013-07-06 02:51:00,
2013-07-05 22:55:00,74.8,67.8,30.12,SW,229,6.0,8.0,79,0.00,CLR,CLR,0.04,WeatherDisplay:10.37,2013-07-06 02:55:00,
2013-07-05 22:56:00,74.8,66.0,30.10,SW,226,4.0,4.0,74,0.00,CLR,,0.05,WeatherDisplay:10.37,2013-07-06 02:56:00,
2013-07-05 23:00:00,74.9,67.9,30.12,SW,225,7.0,9.0,79,0.00,CLR,CLR,0.04,WeatherDisplay:10.37,2013-07-06 03:00:00,
2013-07-05 23:01:00,74.6,66.1,30.09,SW,227,3.5,3.5,75,0.00,CLR,,0.05,WeatherDisplay:10.37,2013-07-06 03:01:00,
2013-07-05 23:05:00,75.1,68.1,30.12,SW,222,6.0,9.0,79,0.00,CLR,CLR,0.04,WeatherDisplay:10.37,2013-07-06 03:05:00,
2013-07-05 23:06:00,74.2,65.8,30.09,SW,222,3.5,3.5,75,0.00,CLR,,0.05,WeatherDisplay:10.37,2013-07-06 03:06:00,
2013-07-05 23:10:00,75.6,68.3,30.12,SW,224,7.0,8.0,78,0.00,CLR,CLR,0.04,WeatherDisplay:10.37,2013-07-06 03:10:00,
2013-07-05 23:11:00,74.0,66.0,30.10,SW,219,4.0,4.0,76,0.00,CLR,,0.05,WeatherDisplay:10.37,2013-07-06 03:11:00,
2013-07-05 23:15:00,76.0,68.3,30.12,SW,216,5.0,10.0,77,0.00,CLR,CLR,0.04,WeatherDisplay:10.37,2013-07-06 03:15:00,
2013-07-05 23:16:00,73.9,65.9,30.10,SW,227,3.5,3.5,76,0.00,CLR,,0.05,WeatherDisplay:10.37,2013-07-06 03:16:00,
2013-07-05 23:20:00,76.7,68.9,30.12,SSW,210,5.0,8.0,77,0.00,CLR,CLR,0.04,WeatherDisplay:10.37,2013-07-06 03:20:00,
2013-07-05 23:21:00,73.9,65.9,30.10,SW,216,4.0,4.0,76,0.00,CLR,,0.05,WeatherDisplay:10.37,2013-07-06 03:21:00,
2013-07-05 23:25:00,77.0,68.5,30.12,SSW,206,6.0,10.0,75,0.00,CLR,CLR,0.04,WeatherDisplay:10.37,2013-07-06 03:25:00,
2013-07-05 23:26:00,74.0,66.0,30.10,SSW,211,4.0,4.0,76,0.00,CLR,,0.05,WeatherDisplay:10.37,2013-07-06 03:26:00,
2013-07-05 23:30:00,76.7,68.2,30.12,SSW,205,6.0,8.0,75,0.00,CLR,CLR,0.04,WeatherDisplay:10.37,2013-07-06 03:30:00,
2013-07-05 23:31:00,73.8,65.8,30.09,SW,217,4.0,4.0,76,0.00,CLR,,0.05,WeatherDisplay:10.37,2013-07-06 03:31:00,
2013-07-05 23:35:00,77.1,68.6,30.12,SSW,213,3.0,7.0,75,0.00,CLR,CLR,0.04,WeatherDisplay:10.37,2013-07-06 03:35:00,
2013-07-05 23:36:00,73.8,65.8,30.09,SSW,211,4.0,4.0,76,0.00,CLR,,0.05,WeatherDisplay:10.37,2013-07-06 03:36:00,
2013-07-05 23:40:00,76.9,68.4,30.12,SW,224,3.0,6.0,75,0.00,CLR,CLR,0.04,WeatherDisplay:10.37,2013-07-06 03:40:00,
2013-07-05 23:41:00,73.8,65.8,30.09,SW,220,3.5,3.5,76,0.00,CLR,,0.05,WeatherDisplay:10.37,2013-07-06 03:41:00,
2013-07-05 23:45:00,76.8,68.7,30.12,SW,235,6.0,9.0,76,0.00,CLR,CLR,0.04,WeatherDisplay:10.37,2013-07-06 03:45:00,
2013-07-05 23:46:00,73.8,65.8,30.09,SW,218,2.3,0.0,76,0.00,CLR,,0.05,WeatherDisplay:10.37,2013-07-06 03:46:00,
2013-07-05 23:47:00,73.8,65.8,30.09,SW,218,2.3,0.0,76,0.00,CLR,,0.05,WeatherDisplay:10.37,2013-07-06 03:47:00,
2013-07-05 23:50:00,77.0,68.5,30.11,SW,236,5.0,9.0,75,0.00,CLR,CLR,0.04,WeatherDisplay:10.37,2013-07-06 03:50:00,
2013-07-05 23:52:00,73.7,65.7,30.10,SW,215,4.0,4.0,76,0.00,CLR,,0.05,WeatherDisplay:10.37,2013-07-06 03:52:00,
2013-07-05 23:55:00,76.9,68.4,30.11,SW,225,5.0,8.0,75,0.00,CLR,CLR,0.04,WeatherDisplay:10.37,2013-07-06 03:55:00,
2013-07-05 23:57:00,73.5,65.8,30.10,SW,215,3.5,3.5,77,0.00,CLR,,0.05,WeatherDisplay:10.37,2013-07-06 03:57:00,